Date,TemperatureHighF,TemperatureAvgF,TemperatureLowF,DewpointHighF,DewpointAvgF,DewpointLowF,HumidityHigh,HumidityAvg,HumidityLow,PressureMaxIn,PressureMinIn,WindSpeedMaxMPH,WindSpeedAvgMPH,GustSpeedMaxMPH,PrecipitationSumIn
2013-11-1,63.3,56.2,51.8,53.8,52.2,48.8,99,87,63,30.10,29.67,9,2,9,0.00
2013-11-2,54.9,51.0,46.0,53.2,46.8,40.1,99,86,66,29.71,29.31,36,9,36,0.00
2013-11-3,59.4,46.2,40.5,45.7,41.6,37.7,98,85,48,29.93,29.70,12,3,12,0.00
2013-11-4,55.9,44.0,35.6,46.3,39.4,35.2,99,85,58,30.01,29.87,4,0,4,0.00
2013-11-5,56.5,48.5,43.3,52.9,46.9,43.1,99,94,74,30.08,29.83,17,2,17,0.00
2013-11-6,54.3,48.7,43.7,49.1,46.7,43.4,99,93,78,30.14,29.85,8,1,8,0.00
2013-11-7,53.1,49.9,48.2,51.0,49.1,47.6,99,97,86,29.85,29.52,23,8,23,0.00
2013-11-8,56.7,50.2,45.1,48.5,46.1,43.8,97,86,70,29.98,29.79,16,4,16,0.00
2013-11-9,52.7,46.1,39.9,48.8,44.5,39.7,99,94,80,29.98,29.89,7,0,7,0.00
2013-11-10,51.3,47.3,45.0,49.1,46.6,44.7,99,97,90,29.97,29.91,10,2,10,0.00
2013-11-11,63.1,49.0,41.5,54.8,46.5,41.3,99,92,60,29.98,29.82,7,1,7,0.00
2013-11-12,64.6,53.3,47.3,58.2,51.4,46.2,99,94,73,30.19,29.84,12,2,12,0.00
2013-11-13,60.4,53.3,48.2,52.9,50.2,46.8,99,90,70,30.26,30.13,15,4,15,0.00
2013-11-14,50.9,46.8,43.3,50.6,46.5,43.1,99,99,95,30.13,29.87,7,1,7,0.00
2013-11-15,80.8,46.2,43.9,53.5,45.1,43.3,99,97,36,30.00,29.26,27,8,27,20.36
2013-11-16,50.0,45.3,40.6,45.9,40.6,38.3,99,84,68,29.70,29.28,17,6,17,0.00
2013-11-17,54.1,47.6,43.7,49.8,45.7,40.7,99,93,83,29.85,29.70,20,8,20,0.00
2013-11-18,52.9,50.1,47.7,52.3,49.8,47.4,99,99,97,29.85,29.48,24,6,24,0.00
2013-11-19,54.3,44.8,37.8,54.1,40.4,23.7,99,86,49,30.00,29.49,23,4,23,0.00
2013-11-20,50.0,38.2,29.5,36.5,28.6,23.4,96,70,40,30.43,30.00,16,2,16,0.00
2013-11-21,51.6,35.4,28.2,37.2,28.4,21.8,99,79,35,30.59,30.43,8,2,8,0.00
2013-11-22,54.0,36.8,28.6,36.8,30.3,27.0,99,80,36,30.57,30.38,6,1,6,0.00
2013-11-23,55.8,39.6,30.7,39.9,34.0,29.3,99,83,42,30.38,30.13,5,0,5,0.00
2013-11-24,59.2,41.1,32.4,45.6,37.8,32.1,99,90,45,30.19,30.09,5,0,5,0.00
2013-11-25,60.4,42.9,33.4,50.8,39.9,33.2,99,90,56,30.25,30.18,3,0,3,0.00
2013-11-26,57.7,43.7,32.5,47.4,40.0,32.1,99,88,59,30.20,30.03,5,0,5,0.00
2013-11-27,63.0,47.2,40.3,45.8,41.9,38.2,99,83,50,30.03,29.89,5,1,5,0.00
2013-11-28,54.0,41.1,36.1,52.8,40.6,35.9,99,98,86,30.11,29.95,5,1,5,0.00
2013-11-29,47.8,44.8,38.1,46.9,44.2,37.5,99,98,86,30.25,30.10,13,2,13,0.00
2013-11-30,51.8,48.9,45.7,50.0,46.8,44.7,99,92,81,30.27,30.03,16,6,16,0.00